TimeHST,TemperatureF,Dew PointF,Humidity,Sea Level PressureIn,VisibilityMPH,Wind Direction,Wind SpeedMPH,Gust SpeedMPH,PrecipitationIn,Events,Conditions,WindDirDegrees,DateUTC
12:56 AM,66.9,62.1,84,30.03,10.0,Calm,Calm,-,N/A,,Clear,0,2013-01-30 10:56:00
1:56 AM,68.0,60.1,76,30.03,10.0,ENE,3.5,-,N/A,,Mostly Cloudy,70,2013-01-30 11:56:00
2:56 AM,66.0,59.0,78,30.03,10.0,ENE,4.6,-,N/A,,Clear,70,2013-01-30 12:56:00
3:56 AM,66.9,62.1,84,30.02,10.0,ENE,4.6,-,N/A,,Clear,70,2013-01-30 13:56:00
4:56 AM,66.0,61.0,84,30.02,10.0,ENE,5.8,-,N/A,,Clear,60,2013-01-30 14:56:00
5:56 AM,66.0,60.1,81,30.02,10.0,ENE,4.6,-,N/A,,Clear,60,2013-01-30 15:56:00
6:56 AM,66.0,59.0,78,30.04,10.0,East,3.5,-,N/A,,Clear,80,2013-01-30 16:56:00
7:56 AM,64.9,63.0,93,30.06,10.0,East,4.6,-,N/A,,Clear,100,2013-01-30 17:56:00
8:56 AM,73.0,62.1,68,30.08,10.0,Calm,Calm,-,N/A,,Clear,0,2013-01-30 18:56:00
9:56 AM,75.9,61.0,60,30.09,10.0,SW,4.6,-,N/A,,Clear,220,2013-01-30 19:56:00
10:56 AM,75.9,64.0,67,30.09,10.0,SW,8.1,-,N/A,,Clear,230,2013-01-30 20:56:00
11:56 AM,77.0,64.0,64,30.08,10.0,WSW,6.9,-,N/A,,Clear,240,2013-01-30 21:56:00
12:56 PM,77.0,64.9,66,30.05,10.0,WSW,6.9,-,N/A,,Clear,240,2013-01-30 22:56:00
1:56 PM,79.0,64.9,62,30.03,10.0,SW,5.8,-,N/A,,Mostly Cloudy,230,2013-01-30 23:56:00
2:12 PM,78.8,66.2,65,30.02,10.0,NNE,8.1,-,N/A,,Overcast,20,2013-01-31 00:12:00
2:34 PM,78.8,71.6,78,30.01,10.0,North,8.1,16.1,N/A,,Scattered Clouds,360,2013-01-31 00:34:00
2:56 PM,79.0,69.1,72,30.02,10.0,NNE,15.0,-,N/A,,Mostly Cloudy,20,2013-01-31 00:56:00
3:25 PM,78.8,64.4,61,30.01,10.0,SE,4.6,-,N/A,,Overcast,130,2013-01-31 01:25:00
3:56 PM,77.0,66.0,69,30.02,10.0,SSE,8.1,-,N/A,,Mostly Cloudy,150,2013-01-31 01:56:00
4:56 PM,75.9,66.0,71,30.02,10.0,SSW,8.1,-,N/A,,Overcast,200,2013-01-31 02:56:00
5:23 PM,75.2,66.2,73,30.02,10.0,South,5.8,-,N/A,,Scattered Clouds,170,2013-01-31 03:23:00
5:56 PM,75.0,68.0,79,30.03,10.0,South,4.6,-,N/A,,Mostly Cloudy,170,2013-01-31 03:56:00
6:04 PM,75.2,69.8,83,30.03,10.0,South,3.5,-,N/A,,Scattered Clouds,170,2013-01-31 04:04:00
6:56 PM,73.9,66.0,76,30.04,10.0,Calm,Calm,-,N/A,,Clear,0,2013-01-31 04:56:00
7:56 PM,71.1,66.9,87,30.06,10.0,Calm,Calm,-,N/A,,Clear,0,2013-01-31 05:56:00
8:56 PM,69.1,66.0,90,30.07,10.0,ENE,4.6,-,N/A,,Clear,70,2013-01-31 06:56:00
9:56 PM,66.9,63.0,87,30.08,10.0,Calm,Calm,-,N/A,,Clear,0,2013-01-31 07:56:00
10:56 PM,68.0,61.0,78,30.09,10.0,Calm,Calm,-,N/A,,Clear,0,2013-01-31 08:56:00
11:56 PM,66.9,61.0,81,30.08,10.0,East,4.6,-,N/A,,Clear,80,2013-01-31 09:56:00